Regional Weather Roundup
Issued by NWS

Home | Current Version | Previous Version | Text Only | Print | Product List | Glossary On
Versions: 1 2 3 4 5 6 7 8 9 10 11 12 13 14 15 16 17 18 19 20 21 22 23 24 25 26 27 28 29 30 31 32 33 34 35 36 37 38 39 40 41 42 43 44 45 46 47 48 49 50
000
ASUS45 KBOI 280510
RWRID
WEATHER ROUNDUP FOR IDAHO
NATIONAL WEATHER SERVICE BOISE ID
1100 PM MDT SUN JUL 27 2014

NOTE: "FAIR" INDICATES FEW OR NO CLOUDS BELOW 12000 FEET
WITH NO SIGNIFICANT WEATHER AND/OR OBSTRUCTIONS TO VISIBILITY

IDZ012-014-280600-
SOUTHWEST IDAHO


CITY           SKY/WX    TMP DP  RH WIND       PRES   REMARKS
BOISE          MOCLDY    87  49  26 CALM      29.99R
CALDWELL       MOCLDY    82  52  34 S3        29.99R
MOUNTAIN HOME  CLOUDY    87  33  14 N3        29.99S
$$

IDZ016-017-280600-
SOUTHCENTRAL IDAHO


CITY           SKY/WX    TMP DP  RH WIND       PRES   REMARKS
BURLEY         MOCLDY    73  54  51 CALM      30.09S
JEROME         CLOUDY    77  49  37 NW5       30.09R
TWIN FALLS     CLOUDY    80  41  24 SE6       30.09S
$$

IDZ019>023-280600-
SOUTHEAST IDAHO


CITY           SKY/WX    TMP DP  RH WIND       PRES   REMARKS
IDAHO FALLS    CLEAR     62  49  62 NE3       30.18R
POCATELLO      CLEAR     75  35  23 E8        30.14R
REXBURG        CLEAR     65  45  48 NE3       30.19R
$$

IDZ006-010-011-018-031-032-280600-
CENTRAL IDAHO MOUNTAINS


CITY           SKY/WX    TMP DP  RH WIND       PRES   REMARKS
MCCALL         CLEAR     76  35  22 N10       30.20R
HAILEY         MOCLDY    72  43  35 NW12      30.22R
STANLEY          N/A     69  28  21 CALM      30.32R
SALMON         CLEAR     66  36  32 CALM      30.13R
CHALLIS        PTCLDY    73  28  18 NW8       30.19R
$$

IDZ002-004-006-007-026-280600-
NORTHERN IDAHO


CITY           SKY/WX    TMP DP  RH WIND       PRES   REMARKS
LEWISTON       MOCLDY    85  38  18 S8        30.00R
LOWELL           N/A     68  55  63 CALM      30.04R
COEUR D`ALENE  MOCLDY    72  46  40 SE8       30.09S
MULLAN PASS    PTCLDY    68  35  29 SE3       30.35S
$$



USA.gov is the U.S. government's official web portal to all federal, state and local government web resources and services.